Location: Northcutt
(34.7304°N, 84.4305°W)
Time: 08:40:42
(UTC+00:00)

S-56A Canister/Altair - Pass Details

Date: 12 October 2022
Orbit: 638 x 2494 km, 38.9° (Epoch: 08 December)

Event Time Altitude Azimuth Distance (km) Brightness Sun altitude
Rises 23:32:54 0° 178° (S) 5,674 12.0 -6.2°
Reaches altitude 10° 23:38:50 10° 159° (SSE) 4,933 11.5 -7.4°
Maximum altitude 23:46:07 16° 128° (SE) 4,635 11.1 -8.9°
Enters shadow 23:53:13 11° 99° (E) 5,098 11.1 -10.3°
Drops below altitude 10° 23:53:37 10° 97° (E) 5,143 - -10.4°
Sets 23:59:55 0° 79° (E) 6,045 - -11.7°
